Notices

What's New in latest Release from April 7th, 2021:

- Updated Glossary, including Speed of Maximum Gust, and Total Hourly Precipitation

- Updated national and regional climate services offices contacts and prices information

- Addition of station inventory lists for 1981-2010, 1971-2000, and 1961-1990 Normals.

If you haven't already, please take our survey and provide feedback about our website: https://eccc.sondage-survey.ca/f/LanguageSelection.aspx?s=442ca660-fcf1-47c0-95a9-59707d6fd709

Hourly Data Report for February 27, 2021

CARBERRY CS
MANITOBA
Current Station Operator: ECCC - MSC

49°54'20.900" N
99°21'26.800" W
383.50 m
5010547
71170
WZE

Download Data

Hourly Data (February 2021)
Hourly Data Report for February 27, 2021
TIME
LST
Temp Definition
°C
Dew Point Definition
°C
Rel Hum Definition
%
Precip. Amount Definition
mm

Wind Dir Definition
10's deg

Wind Spd Definition
km/h
Visibility Definition
km
Stn Press Definition
kPa
Hmdx Definition


Wind Chill Definition


Weather Definition


00:00 -20.5 -23.7 75 0.3 3 25   96.48   -32 LegendNANA
01:00 -21.4 -24.8 74 0.0 3 23   96.58   -33 LegendNANA
02:00 -21.4 -24.9 74 0.0 3 22   96.65   -33 LegendNANA
03:00 -21.3 -24.7 74 0.0 3 21   96.71   -32 LegendNANA
04:00 -21.7 -25.1 74 0.0 2 22   96.76   -33 LegendNANA
05:00 -21.8 -25.3 73 0.0 3 21   96.79   -33 LegendNANA
06:00 -21.8 -25.3 73 0.0 3 21   96.90   -33 LegendNANA
07:00 -21.8 -25.4 73 0.0 3 21   96.95   -33 LegendNANA
08:00 -22.1 -25.4 75 0.2 2 14   97.06   -31 LegendNANA
09:00 -22.3 -26.0 71 0.0 2 17   97.12   -33 LegendNANA
10:00 -22.1 -25.8 72 0.2 3 14   97.19   -31 LegendNANA
11:00 -21.6 -25.8 69 0.0 1 12   97.23   -30 LegendNANA
12:00 -21.0 -25.7 66 0.0 36 11   97.27   -29 LegendNANA
13:00 -20.4 -25.2 66 0.0 36 8   97.31   -27 LegendNANA
14:00 -19.8 -24.9 64 0.0 34 11   97.28   -27 LegendNANA
15:00 -19.1 -24.3 63 0.0 33 9   97.28   -26 LegendNANA
16:00 -18.5 -24.0 62 0.0 32 7   97.25   -24 LegendNANA
17:00 -18.3 -23.8 62 0.0 32 6   97.25   -23 LegendNANA
18:00 -19.8 -24.4 67 0.0 27 8   97.29   -26 LegendNANA
19:00 -22.0 -25.5 73 0.0 28 5   97.31   -27 LegendNANA
20:00 -23.2 -26.5 75 0.2 26 6   97.33   -29 LegendNANA
21:00 -21.5 -24.6 76 0.0 23 7   97.37   -27 LegendNANA
22:00 -21.8 -24.8 77 0.0 24 7   97.34   -28 LegendNANA
23:00 -20.8 -23.9 76 0.0 25 9   97.31   -28 LegendNANA

Notes on Data Quality.

Legend

  • E = Estimated
  • M = Missing
  • NA = Not Available*
  • [empty] = Indicates an unobserved value
Date modified: